New York, NY

2:38 PM EST on November 18, 2019 (GMT -0500)
La Guardia

Weather History for KLGA - August, 2019

Change the Weather History Date:

Thursday, August 15, 2019

  Actual Average Record
Temperature  
Mean Temperature 79 °F 77 °F  
Max Temperature 85 °F 84 °F 97 °F (1985)
Min Temperature 72 °F 69 °F 59 °F (1964)
Degree Days  
Heating Degree Days 0 0  
Month to date heating degree days 0 0  
Since 1 June heating degree days 4 16  
Since 1 July heating degree days 0 0  
Cooling Degree Days 14 12  
Month to date cooling degree days 210 184  
Year to date cooling degree days 1035 866  
Since 1 June cooling degree days 973 800  
Growing Degree Days 28 (Base 50)    
Moisture  
Dew Point 64 °F    
Average Humidity 64    
Maximum Humidity 84    
Minimum Humidity 43    
Precipitation  
Precipitation 0.00 in 0.13 in 0.98 in (1951)
Month to date precipitation 0.86 2.11  
Year to date precipitation 33.56 28.24  
Snow  
Snow 0.00 in 0.00 in - ()
Month to date snowfall 0.0 0.0  
Since 1 July snowfall 0.0 0.0  
Snow Depth 0.00 in    
Sea Level Pressure  
Sea Level Pressure 29.98 in    
Wind  
Wind Speed 9 mph (East)    
Max Wind Speed 15 mph    
Max Gust Speed 24 mph    
Visibility 10 miles    
Events      
T = Trace of Precipitation, MM = Missing Value Source: NWS Daily Summary

Daily Weather History Graph

Daily Weather History Graph

Search for Another Location

Airport or City:

Astronomy

Aug. 15, 2019 Rise Set
Actual Time 6:05 AM EDT 7:53 PM EDT
Civil Twilight 5:35 AM EDT 8:23 PM EDT
Nautical Twilight 5:00 AM EDT 8:58 PM EDT
Astronomical Twilight 4:21 AM EDT 9:37 PM EDT
Moon 8:21 PM EDT (8/15) 5:57 AM EDT (8/15)
Length of Visible Light 14h 47m
Length of Day
13h 48m
Full, 100% of the Moon is Illuminated
Aug 15
Full
Aug 23
Last Quarter
Aug 30
New
Sep 5
First Quarter
Sep 14
Full

Hourly Weather History & Observations

Time (EDT) Temp. Heat Index Dew Point Humidity Pressure Visibility Wind Dir Wind Speed Gust Speed Precip Events Conditions
12:51 AM 75.0 °F - 68.0 °F 79% 29.93 in 7.0 mi SSE 4.6 mph - N/A   Mostly Cloudy
1:51 AM 73.0 °F - 68.0 °F 84% 29.94 in 7.0 mi East 5.8 mph - N/A   Overcast
2:14 AM 73.0 °F - 68.0 °F 84% 29.94 in 7.0 mi East 4.6 mph - N/A   Overcast
2:51 AM 73.0 °F - 68.0 °F 84% 29.94 in 9.0 mi ESE 5.8 mph - N/A   Overcast
3:51 AM 73.9 °F - 66.9 °F 79% 29.94 in 10.0 mi East 5.8 mph - N/A   Overcast
4:10 AM 73.9 °F - 66.9 °F 79% 29.94 in 10.0 mi NE 5.8 mph - N/A   Overcast
4:51 AM 73.0 °F - 66.0 °F 79% 29.95 in 10.0 mi East 5.8 mph - N/A   Overcast
5:24 AM 73.0 °F - 66.0 °F 79% 29.94 in 10.0 mi NE 6.9 mph - N/A   Scattered Clouds
5:51 AM 72.0 °F - 66.0 °F 81% 29.96 in 10.0 mi ENE 6.9 mph - N/A   Scattered Clouds
6:51 AM 73.0 °F - 66.9 °F 81% 29.97 in 10.0 mi ENE 3.5 mph - N/A   Scattered Clouds
7:51 AM 73.9 °F - 66.9 °F 79% 29.99 in 10.0 mi NE 8.1 mph - N/A   Scattered Clouds
8:51 AM 73.9 °F - 66.9 °F 79% 29.99 in 10.0 mi NE 11.5 mph - N/A   Mostly Cloudy
9:51 AM 75.0 °F - 66.9 °F 76% 30.01 in 10.0 mi East 10.4 mph - N/A   Partly Cloudy
10:51 AM 77.0 °F - 64.9 °F 66% 30.02 in 10.0 mi ENE 9.2 mph - N/A   Partly Cloudy
11:51 AM 79.0 °F - 62.1 °F 56% 30.01 in 10.0 mi NE 12.7 mph - N/A   Partly Cloudy
12:51 PM 80.1 °F 80.7 °F 59.0 °F 48% 30.00 in 10.0 mi NE 11.5 mph - N/A   Partly Cloudy
1:51 PM 82.0 °F 82.4 °F 60.1 °F 47% 29.99 in 10.0 mi ENE 12.7 mph - N/A   Scattered Clouds
2:51 PM 80.1 °F 81.5 °F 63.0 °F 56% 29.99 in 10.0 mi NE 10.4 mph - N/A   Scattered Clouds
3:51 PM 81.0 °F 81.9 °F 62.1 °F 52% 29.98 in 10.0 mi NE 10.4 mph - N/A   Scattered Clouds
4:16 PM 84.0 °F 83.8 °F 59.0 °F 43% 29.97 in 10.0 mi ESE 9.2 mph - N/A   Mostly Cloudy
4:51 PM 82.9 °F 82.4 °F 57.0 °F 41% 29.97 in 10.0 mi SE 9.2 mph - N/A   Mostly Cloudy
5:51 PM 80.1 °F 80.7 °F 59.0 °F 48% 29.98 in 10.0 mi SE 13.8 mph - N/A   Mostly Cloudy
6:51 PM 78.1 °F - 59.0 °F 52% 29.99 in 10.0 mi SE 9.2 mph - N/A   Mostly Cloudy
7:51 PM 75.0 °F - 63.0 °F 66% 29.99 in 10.0 mi SSE 8.1 mph - N/A   Mostly Cloudy
8:51 PM 73.0 °F - 64.9 °F 76% 30.00 in 10.0 mi Variable 6.9 mph - N/A   Mostly Cloudy
9:08 PM 73.0 °F - 64.0 °F 73% 30.01 in 10.0 mi SE 10.4 mph - N/A   Mostly Cloudy
9:51 PM 73.0 °F - 64.0 °F 73% 30.01 in 10.0 mi South 6.9 mph - N/A   Mostly Cloudy
10:49 PM 71.6 °F - 64.4 °F 78% 30.02 in 10.0 mi SE 5.8 mph - N/A   Mostly Cloudy
10:51 PM 72.0 °F - 64.0 °F 76% 30.02 in 10.0 mi SE 8.1 mph - N/A   Mostly Cloudy
11:51 PM 73.0 °F - 64.0 °F 73% 30.03 in 10.0 mi SE 9.2 mph - N/A   Mostly Cloudy